Regional Weather Roundup
Issued by NWS Memphis, TN

Home | Current Version | Previous Version | Text Only | Print | Product List | Glossary On
Versions: 1 2 3 4 5 6 7 8 9 10 11 12 13 14 15 16 17 18 19 20 21 22 23 24 25 26 27 28 29 30 31 32 33 34 35 36 37 38 39 40 41 42 43 44 45 46 47 48 49 50
000
ASUS44 KMEG 230400
RWRMEG
MEMPHIS CWA HOURLY WEATHER ROUNDUP
NATIONAL WEATHER SERVICE MEMPHIS TN
1100 PM CDT FRI AUG 22 2014

...WEST TENNESSEE...

CITY           SKY/WX    TMP DP  RH WIND       PRES   REMARKS
MEMPHIS INTL   CLEAR     83  73  72 S5        30.01R
NWS MEMPHIS      N/A     83 N/A N/A MISG        N/A
JACKSON        CLEAR     78  74  87 S5        30.01S
SAVANNAH       CLEAR     75  75 100 CALM      30.04R
DYERSBURG      CLEAR     82  68  61 SW5       30.00S
PARIS          CLEAR     73  70  88 CALM      30.02S


...EASTERN ARKANSAS...

CITY           SKY/WX    TMP DP  RH WIND       PRES   REMARKS
JONESBORO      CLEAR     83  73  72 S9        29.98R
WEST MEMPHIS   CLEAR     80  77  90 CALM      29.99R
BATESVILLE     CLEAR     84  73  70 S6        29.98R HX  91
WALNUT RIDGE   CLEAR     81  73  78 S8        29.96S
BLYTHEVILLE    CLEAR     80  77  90 S6        29.99S
STUTTGART      CLEAR     81  75  83 S7        30.01R
PINE BLUFF     CLEAR     77  74  90 CALM      30.00S
MONTICELLO     CLEAR     83  71  67 SW6       30.00F


...NORTH MISSISSIPPI...

CITY           SKY/WX    TMP DP  RH WIND       PRES   REMARKS
TUPELO         CLEAR     81  74  79 CALM      30.02S
OLIVE BRANCH   CLEAR     79  79 100 S6        30.02R
GREENWOOD      CLEAR     75  72  90 CALM      30.02R
STARKVILLE     FAIR      73  70  88 CALM      30.03R
GOLDEN TRIANGL CLEAR     79  70  73 NW3       30.03S


...SOUTHEAST MISSOURI...

CITY           SKY/WX    TMP DP  RH WIND       PRES   REMARKS
WEST PLAINS    CLEAR     81  70  69 SW5       30.01R
POPLAR BLUFF   CLEAR     81  73  76 S6        29.96R
CAPE GIRARDEAU MOCLDY    81  77  88 CALM      29.97R


...NORTHWEST ALABAMA...

CITY           SKY/WX    TMP DP  RH WIND       PRES   REMARKS
MUSCLE SHOALS  CLEAR     77  72  84 CALM      30.04S


...MIDDLE TENNESSEE...

CITY           SKY/WX    TMP DP  RH WIND       PRES   REMARKS
NASHVILLE      CLEAR     80  74  81 CALM      30.03S
CLARKSVILLE    PTCLDY    78  74  87 S3        30.01S


...WESTERN KENTUCKY...

CITY           SKY/WX    TMP DP  RH WIND       PRES   REMARKS
PADUCAH        MOCLDY    83  75  77 S6        29.98S HX  90
FORT CAMPBELL  PTCLDY    80  78  93 SW2       30.01S


...CENTRAL ARKANSAS...

CITY           SKY/WX    TMP DP  RH WIND       PRES   REMARKS
LITTLE ROCK    CLEAR     83  74  74 CALM      29.99S


SKY/WX REPORTED AS FAIR MEANS FEW OR NO CLOUDS BELOW
12 THOUSAND FEET.



USA.gov is the U.S. government's official web portal to all federal, state and local government web resources and services.